Time,TemperatureF,DewpointF,PressureIn,WindDirection,WindDirectionDegrees,WindSpeedMPH,WindSpeedGustMPH,Humidity,HourlyPrecipIn,Conditions,Clouds,dailyrainin,SolarRadiationWatts/m^2,SoftwareType,DateUTC
2013-10-28 00:02:00,34.0,34.0,-100.00,NW,316,0.0,2.0,99,0.00,,,0.00,0.000000,,2013-10-28 08:02:00,
2013-10-28 00:11:00,34.0,34.0,-100.00,NW,316,0.0,2.0,99,0.00,,,0.00,0.000000,,2013-10-28 08:11:00,
2013-10-28 00:21:00,34.0,34.0,-100.00,NW,316,0.0,2.0,99,0.00,,,0.00,0.000000,,2013-10-28 08:21:00,
2013-10-28 00:52:00,34.0,34.0,-100.00,WNW,299,0.0,1.0,99,0.00,,,0.00,0.000000,,2013-10-28 08:52:00,
2013-10-28 01:02:00,34.0,34.0,-100.00,WNW,299,0.0,1.0,99,0.00,,,0.00,0.000000,,2013-10-28 09:02:00,
2013-10-28 01:11:00,34.0,34.0,-100.00,WNW,299,0.0,1.0,99,0.00,,,0.00,0.000000,,2013-10-28 09:11:00,
2013-10-28 01:21:00,34.0,34.0,-100.00,WNW,299,0.0,1.0,99,0.00,,,0.00,0.000000,,2013-10-28 09:21:00,
2013-10-28 01:53:00,34.0,34.0,-100.00,NW,309,0.0,2.0,99,0.00,,,-99.99,0.000000,,2013-10-28 09:53:00,
2013-10-28 02:03:00,34.0,34.0,-100.00,NW,309,0.0,2.0,99,0.00,,,-99.99,0.000000,,2013-10-28 10:03:00,
2013-10-28 02:13:00,34.0,34.0,-100.00,NW,309,0.0,2.0,99,0.00,,,-99.99,0.000000,,2013-10-28 10:13:00,
2013-10-28 02:23:00,34.0,34.0,-100.00,NW,309,0.0,2.0,99,0.00,,,-99.99,0.000000,,2013-10-28 10:23:00,
2013-10-28 02:53:00,36.0,35.0,-100.00,WNW,299,0.0,2.0,99,0.00,,,0.00,0.000000,,2013-10-28 10:53:00,
2013-10-28 03:03:00,36.0,35.0,-100.00,WNW,299,0.0,2.0,99,0.00,,,0.00,0.000000,,2013-10-28 11:03:00,
2013-10-28 03:12:00,36.0,35.0,-100.00,WNW,299,0.0,2.0,99,0.00,,,0.00,0.000000,,2013-10-28 11:12:00,
2013-10-28 03:22:00,36.0,35.0,-100.00,WNW,299,0.0,2.0,99,0.00,,,0.00,0.000000,,2013-10-28 11:22:00,
2013-10-28 03:52:00,36.0,35.0,-100.00,NW,304,1.0,2.0,99,0.00,,,0.00,0.000000,,2013-10-28 11:52:00,
2013-10-28 04:01:00,36.0,35.0,-100.00,NW,304,1.0,2.0,99,0.00,,,0.00,0.000000,,2013-10-28 12:01:00,
2013-10-28 04:11:00,36.0,35.0,-100.00,NW,304,1.0,2.0,99,0.00,,,0.00,0.000000,,2013-10-28 12:11:00,
2013-10-28 04:21:00,36.0,35.0,-100.00,NW,304,1.0,2.0,99,0.00,,,0.00,0.000000,,2013-10-28 12:21:00,
2013-10-28 04:52:00,36.0,35.0,-100.00,NW,314,0.0,2.0,98,0.00,,,0.00,0.000000,,2013-10-28 12:52:00,
2013-10-28 05:01:00,36.0,35.0,-100.00,NW,314,0.0,2.0,98,0.00,,,0.00,0.000000,,2013-10-28 13:01:00,
2013-10-28 05:11:00,36.0,35.0,-100.00,NW,314,0.0,2.0,98,0.00,,,0.00,0.000000,,2013-10-28 13:11:00,
2013-10-28 05:21:00,36.0,35.0,-100.00,NW,314,0.0,2.0,98,0.00,,,0.00,0.000000,,2013-10-28 13:21:00,
2013-10-28 05:52:00,36.0,35.0,-100.00,NW,306,0.0,2.0,98,0.00,,,0.00,0.000000,,2013-10-28 13:52:00,
2013-10-28 06:02:00,36.0,35.0,-100.00,NW,306,0.0,2.0,98,0.00,,,0.00,0.000000,,2013-10-28 14:02:00,
2013-10-28 06:11:00,36.0,35.0,-100.00,NW,306,0.0,2.0,98,0.00,,,0.00,0.000000,,2013-10-28 14:11:00,
2013-10-28 06:21:00,36.0,35.0,-100.00,NW,306,0.0,2.0,98,0.00,,,0.00,0.000000,,2013-10-28 14:21:00,
2013-10-28 06:52:00,36.0,35.0,-100.00,NW,322,0.0,3.0,98,0.00,,,0.00,0.000000,,2013-10-28 14:52:00,
2013-10-28 07:02:00,36.0,35.0,-100.00,NW,322,0.0,3.0,98,0.00,,,0.00,0.000000,,2013-10-28 15:02:00,
2013-10-28 07:11:00,36.0,35.0,-100.00,NW,322,0.0,3.0,98,0.00,,,0.00,0.000000,,2013-10-28 15:11:00,
2013-10-28 07:21:00,36.0,35.0,-100.00,NW,322,0.0,3.0,98,0.00,,,0.00,0.000000,,2013-10-28 15:21:00,
2013-10-28 07:53:00,36.0,35.0,-100.00,WNW,291,0.0,2.0,99,0.00,,,0.00,0.000000,,2013-10-28 15:53:00,
2013-10-28 08:03:00,36.0,35.0,-100.00,WNW,291,0.0,2.0,99,0.00,,,0.00,0.000000,,2013-10-28 16:03:00,
2013-10-28 08:13:00,36.0,35.0,-100.00,WNW,291,0.0,2.0,99,0.00,,,0.00,0.000000,,2013-10-28 16:13:00,
2013-10-28 08:23:00,36.0,35.0,-100.00,WNW,291,0.0,2.0,99,0.00,,,0.00,0.000000,,2013-10-28 16:23:00,
2013-10-28 08:53:00,36.0,35.0,-100.00,NW,305,0.0,2.0,98,0.00,,,0.00,0.000000,,2013-10-28 16:53:00,
2013-10-28 09:02:00,36.0,35.0,-100.00,NW,305,0.0,2.0,98,0.00,,,0.00,0.000000,,2013-10-28 17:02:00,
2013-10-28 09:12:00,36.0,35.0,-100.00,NW,305,0.0,2.0,98,0.00,,,0.00,0.000000,,2013-10-28 17:12:00,
2013-10-28 09:22:00,36.0,35.0,-100.00,NW,305,0.0,2.0,98,0.00,,,0.00,0.000000,,2013-10-28 17:22:00,
2013-10-28 09:52:00,36.0,35.0,-100.00,NW,308,0.0,2.0,98,0.00,,,0.00,3.000000,,2013-10-28 17:52:00,
2013-10-28 10:02:00,36.0,35.0,-100.00,NW,308,0.0,2.0,98,0.00,,,0.00,3.000000,,2013-10-28 18:02:00,
2013-10-28 10:12:00,36.0,35.0,-100.00,NW,308,0.0,2.0,98,0.00,,,0.00,3.000000,,2013-10-28 18:12:00,
2013-10-28 10:21:00,36.0,35.0,-100.00,NW,308,0.0,2.0,98,0.00,,,0.00,3.000000,,2013-10-28 18:21:00,
2013-10-28 10:52:00,37.0,37.0,-100.00,WNW,300,0.0,1.0,98,0.00,,,0.00,21.000000,,2013-10-28 18:52:00,
2013-10-28 11:01:00,37.0,37.0,-100.00,WNW,300,0.0,1.0,98,0.00,,,0.00,21.000000,,2013-10-28 19:01:00,
2013-10-28 11:11:00,37.0,37.0,-100.00,WNW,300,0.0,1.0,98,0.00,,,0.00,21.000000,,2013-10-28 19:11:00,
2013-10-28 11:21:00,37.0,37.0,-100.00,WNW,300,0.0,1.0,98,0.00,,,0.00,21.000000,,2013-10-28 19:21:00,
2013-10-28 11:52:00,37.0,37.0,-100.00,NNW,346,0.0,1.0,97,0.00,,,0.00,28.000000,,2013-10-28 19:52:00,
2013-10-28 12:02:00,37.0,37.0,-100.00,NNW,346,0.0,1.0,97,0.00,,,0.00,28.000000,,2013-10-28 20:02:00,
2013-10-28 12:11:00,37.0,37.0,-100.00,NNW,346,0.0,1.0,97,0.00,,,0.00,28.000000,,2013-10-28 20:11:00,
2013-10-28 12:21:00,37.0,37.0,-100.00,NNW,346,0.0,1.0,97,0.00,,,0.00,28.000000,,2013-10-28 20:21:00,
2013-10-28 12:52:00,39.0,38.0,-100.00,North,0,0.0,1.0,96,0.00,,,0.00,25.000000,,2013-10-28 20:52:00,
2013-10-28 13:02:00,39.0,38.0,-100.00,North,0,0.0,1.0,96,0.00,,,0.00,25.000000,,2013-10-28 21:02:00,
2013-10-28 13:11:00,39.0,38.0,-100.00,North,0,0.0,1.0,96,0.00,,,0.00,25.000000,,2013-10-28 21:11:00,
2013-10-28 13:21:00,39.0,38.0,-100.00,North,0,0.0,1.0,96,0.00,,,0.00,25.000000,,2013-10-28 21:21:00,
2013-10-28 13:54:00,39.0,37.0,-100.00,ESE,115,0.0,1.0,93,0.00,,,0.00,29.000000,,2013-10-28 21:54:00,
2013-10-28 14:03:00,39.0,37.0,-100.00,ESE,115,0.0,1.0,93,0.00,,,0.00,29.000000,,2013-10-28 22:03:00,
2013-10-28 14:13:00,39.0,37.0,-100.00,ESE,115,0.0,1.0,93,0.00,,,0.00,29.000000,,2013-10-28 22:13:00,
2013-10-28 14:23:00,39.0,37.0,-100.00,ESE,115,0.0,1.0,93,0.00,,,0.00,29.000000,,2013-10-28 22:23:00,
2013-10-28 14:53:00,39.0,38.0,-100.00,NNW,335,0.0,1.0,95,0.00,,,0.00,20.000000,,2013-10-28 22:53:00,
2013-10-28 15:03:00,39.0,38.0,-100.00,NNW,335,0.0,1.0,95,0.00,,,0.00,20.000000,,2013-10-28 23:03:00,
2013-10-28 15:12:00,39.0,38.0,-100.00,NNW,335,0.0,1.0,95,0.00,,,0.00,20.000000,,2013-10-28 23:12:00,
2013-10-28 15:22:00,39.0,38.0,-100.00,NNW,335,0.0,1.0,95,0.00,,,0.00,20.000000,,2013-10-28 23:22:00,
2013-10-28 15:52:00,39.0,38.0,-100.00,North,1,0.0,1.0,96,0.00,,,0.00,11.000000,,2013-10-28 23:52:00,
2013-10-28 16:01:00,39.0,38.0,-100.00,North,1,0.0,1.0,96,0.00,,,0.00,11.000000,,2013-10-29 00:01:00,
2013-10-28 16:11:00,39.0,38.0,-100.00,North,1,0.0,1.0,96,0.00,,,0.00,11.000000,,2013-10-29 00:11:00,
2013-10-28 16:21:00,39.0,38.0,-100.00,North,1,0.0,1.0,96,0.00,,,0.00,11.000000,,2013-10-29 00:21:00,
2013-10-28 16:52:00,37.0,37.0,-100.00,NNE,15,1.0,3.0,97,0.00,,,0.00,7.000000,,2013-10-29 00:52:00,
2013-10-28 17:01:00,37.0,37.0,-100.00,NNE,15,1.0,3.0,97,0.00,,,0.00,7.000000,,2013-10-29 01:01:00,
2013-10-28 17:11:00,37.0,37.0,-100.00,NNE,15,1.0,3.0,97,0.00,,,0.00,7.000000,,2013-10-29 01:11:00,
2013-10-28 17:21:00,37.0,37.0,-100.00,NNE,15,1.0,3.0,97,0.00,,,0.00,7.000000,,2013-10-29 01:21:00,
2013-10-28 17:53:00,37.0,37.0,-100.00,WNW,286,0.0,2.0,98,0.00,,,0.00,2.000000,,2013-10-29 01:53:00,
2013-10-28 18:02:00,37.0,37.0,-100.00,WNW,286,0.0,2.0,98,0.00,,,0.00,2.000000,,2013-10-29 02:02:00,
2013-10-28 18:11:00,37.0,37.0,-100.00,WNW,286,0.0,2.0,98,0.00,,,0.00,2.000000,,2013-10-29 02:11:00,
2013-10-28 18:21:00,37.0,37.0,-100.00,WNW,286,0.0,2.0,98,0.00,,,0.00,2.000000,,2013-10-29 02:21:00,
2013-10-28 18:24:00,37.0,37.0,-100.00,NW,304,1.0,2.0,99,0.00,,,0.00,0.000000,,2013-10-29 02:24:00,
2013-10-28 18:54:00,37.0,37.0,-100.00,NW,304,1.0,2.0,99,0.00,,,0.00,0.000000,,2013-10-29 02:54:00,
2013-10-28 19:03:00,37.0,37.0,-100.00,NW,304,1.0,2.0,99,0.00,,,0.00,0.000000,,2013-10-29 03:03:00,
2013-10-28 19:14:00,37.0,37.0,-100.00,NW,304,1.0,2.0,99,0.00,,,0.00,0.000000,,2013-10-29 03:14:00,
2013-10-28 19:55:00,37.0,37.0,-100.00,NNW,340,1.0,2.0,99,0.00,,,0.00,0.000000,,2013-10-29 03:55:00,
2013-10-28 20:03:00,37.0,37.0,-100.00,NNW,340,1.0,2.0,99,0.00,,,0.00,0.000000,,2013-10-29 04:03:00,
2013-10-28 20:13:00,37.0,37.0,-100.00,NNW,340,1.0,2.0,99,0.00,,,0.00,0.000000,,2013-10-29 04:13:00,
2013-10-28 20:57:00,37.0,37.0,-100.00,WNW,297,1.0,3.0,99,-99.99,,,0.00,0.000000,,2013-10-29 04:57:00,
2013-10-28 21:04:00,37.0,37.0,-100.00,WNW,297,1.0,3.0,99,-99.99,,,0.00,0.000000,,2013-10-29 05:04:00,
2013-10-28 21:18:00,37.0,37.0,-100.00,WNW,297,1.0,3.0,99,-99.99,,,0.00,0.000000,,2013-10-29 05:18:00,
2013-10-28 22:24:00,43.0,29.0,-100.00,East,83,5.0,10.0,59,-99.99,,,0.00,0.000000,,2013-10-29 06:24:00,
2013-10-28 22:52:00,43.0,29.0,-100.00,East,83,5.0,10.0,59,-99.99,,,0.00,0.000000,,2013-10-29 06:52:00,
2013-10-28 23:01:00,43.0,29.0,-100.00,East,83,5.0,10.0,59,-99.99,,,0.00,0.000000,,2013-10-29 07:01:00,
2013-10-28 23:11:00,43.0,29.0,-100.00,East,83,5.0,10.0,59,-99.99,,,0.00,0.000000,,2013-10-29 07:11:00,
2013-10-28 23:24:00,41.0,37.0,-100.00,ENE,64,4.0,8.0,85,0.01,,,0.01,0.000000,,2013-10-29 07:24:00,
2013-10-28 23:55:00,41.0,37.0,-100.00,ENE,64,4.0,8.0,85,0.01,,,0.01,0.000000,,2013-10-29 07:55:00,